Date,TemperatureHighF,TemperatureAvgF,TemperatureLowF,DewpointHighF,DewpointAvgF,DewpointLowF,HumidityHigh,HumidityAvg,HumidityLow,PressureMaxIn,PressureMinIn,WindSpeedMaxMPH,WindSpeedAvgMPH,GustSpeedMaxMPH,PrecipitationSumIn
2013-1-1,71.3,64.3,55.9,65.9,61.7,53.6,97,91,83,30.00,29.84,8,4,20,0.07
2013-1-2,55.7,50.4,44.3,53.4,46.4,42.5,94,86,78,30.11,29.92,4,2,16,0.10
2013-1-3,49.4,42.1,34.0,42.8,36.2,29.4,96,81,50,30.28,30.10,3,1,17,0.26
2013-1-4,58.9,44.9,34.4,37.8,30.1,23.3,79,59,28,30.34,30.23,6,2,18,0.00
2013-1-5,51.3,47.3,41.5,37.4,34.4,30.0,72,61,54,30.27,30.15,5,2,14,0.00
2013-1-6,51.3,47.7,42.3,47.9,43.2,37.3,95,85,61,30.20,30.09,7,2,16,0.17
2013-1-7,63.7,49.0,37.8,44.6,39.1,32.0,95,73,31,30.23,30.11,7,2,16,0.01
2013-1-8,64.0,56.7,47.7,59.3,51.6,40.0,91,83,73,30.13,30.03,7,4,17,0.00
2013-1-9,68.8,65.7,62.4,67.2,63.4,58.7,98,92,87,30.13,30.04,7,5,19,0.00
2013-1-10,72.7,67.0,61.3,68.3,65.1,60.2,98,94,86,30.12,29.90,7,3,27,0.22
2013-1-11,76.3,69.2,63.9,68.8,66.2,61.6,97,91,76,30.05,29.95,7,3,17,0.00
2013-1-12,76.0,70.5,67.3,70.4,68.2,66.4,98,92,80,30.00,29.87,8,5,22,0.00
2013-1-13,73.9,69.8,58.7,69.7,67.8,57.3,98,94,85,29.94,29.84,9,6,27,0.05
2013-1-14,58.6,52.4,43.3,57.2,51.4,42.5,98,96,94,30.02,29.93,6,3,17,0.06
2013-1-15,61.2,52.8,43.1,60.9,52.3,42.3,99,98,97,29.99,29.85,4,1,13,0.04
2013-1-16,53.8,46.6,39.8,53.5,44.7,37.4,99,93,87,30.00,29.86,4,2,15,0.13
2013-1-17,52.6,43.1,36.6,37.4,34.3,30.7,93,72,49,30.28,30.00,5,2,28,0.00
2013-1-18,59.8,45.0,35.8,42.3,36.6,33.4,95,75,40,30.43,30.29,7,2,18,0.00
2013-1-19,67.4,49.3,36.5,48.6,41.6,35.2,96,77,45,30.30,30.16,4,1,11,0.00
2013-1-20,66.0,50.5,37.3,50.8,45.0,36.5,98,83,49,30.18,30.04,4,1,11,0.00
2013-1-21,67.1,52.9,42.1,45.9,43.3,41.3,98,74,41,30.13,30.04,3,0,16,0.01
2013-1-22,60.2,48.0,40.2,42.2,35.2,27.5,93,64,35,30.27,30.12,7,2,17,0.00
2013-1-23,63.4,51.9,36.8,51.2,44.8,35.6,96,78,56,30.31,30.21,6,2,14,0.00
2013-1-24,66.3,57.5,43.9,56.4,52.4,42.8,98,84,67,30.26,30.14,6,2,15,0.01
2013-1-25,69.9,61.3,49.8,57.9,55.4,48.4,96,82,62,30.19,30.06,9,3,22,0.00
2013-1-26,70.3,61.9,52.3,62.4,58.2,51.5,98,88,72,30.17,30.09,6,1,12,0.01
2013-1-27,72.5,61.4,52.0,62.3,57.9,51.5,98,89,64,30.21,30.14,5,1,14,0.01
2013-1-28,75.3,65.4,54.4,65.9,61.6,54.1,99,88,64,30.18,30.06,7,3,17,0.01
2013-1-29,73.7,69.4,66.4,69.2,67.6,65.2,98,94,84,30.04,29.78,9,5,23,0.03
2013-1-30,70.8,60.8,44.2,69.3,54.5,30.8,98,81,49,30.06,29.62,13,5,28,0.74
2013-1-31,61.5,49.0,36.9,40.9,32.2,23.2,81,56,24,30.24,30.06,4,1,18,0.00
2013-2-1,63.5,50.7,40.8,42.0,37.4,33.5,83,62,36,30.31,30.22,4,1,15,0.00
2013-2-2,64.5,50.0,33.8,53.7,40.4,27.6,96,72,36,30.27,30.10,5,2,15,0.00
2013-2-3,65.3,55.9,44.2,53.7,46.8,36.2,96,74,34,30.18,30.05,6,1,13,0.00
2013-2-4,64.7,52.8,41.2,54.3,45.2,38.8,95,78,47,30.04,29.89,2,0,6,0.21
2013-2-5,70.1,61.0,54.5,61.4,57.8,53.7,98,90,73,29.95,29.84,6,2,14,0.34
2013-2-6,70.4,60.0,54.4,60.1,57.1,53.6,98,90,70,30.06,29.92,6,2,17,0.03
2013-2-7,75.4,64.4,54.8,61.2,58.8,53.7,97,83,57,29.92,29.71,7,2,17,1.38
2013-2-8,70.1,59.5,50.8,60.7,55.5,49.5,98,87,70,30.07,29.86,5,1,16,0.00
2013-2-9,66.3,55.9,46.1,56.2,50.2,43.0,93,82,68,30.16,30.01,6,3,20,0.00
2013-2-10,70.8,66.8,58.3,69.6,63.3,56.6,98,89,80,30.01,29.87,11,6,30,0.01
2013-2-11,69.3,62.6,57.5,68.7,60.8,55.1,98,94,85,30.02,29.90,9,4,21,0.39
2013-2-12,68.1,61.7,56.9,67.5,60.6,55.5,98,96,94,29.95,29.68,8,4,20,0.20
2013-2-13,65.6,52.8,42.8,65.0,50.0,41.2,98,90,76,29.98,29.69,4,1,16,0.27
2013-2-14,57.5,46.6,39.8,44.3,41.3,38.8,97,83,53,30.08,29.97,5,1,11,0.01
2013-2-15,63.4,49.8,36.6,47.1,41.2,36.1,99,76,41,30.09,29.97,6,1,13,0.01
2013-2-16,53.3,47.1,32.9,40.8,26.6,14.0,81,49,21,30.21,30.01,7,2,28,0.00
2013-2-17,53.1,42.1,29.4,37.2,29.8,22.2,87,65,31,30.29,30.18,7,1,17,0.00
2013-2-18,65.2,57.1,40.2,57.3,47.5,36.9,91,71,52,30.18,29.92,10,5,25,0.00
2013-2-19,67.9,60.1,43.6,59.8,44.6,24.8,97,63,20,30.12,29.88,11,3,31,0.32
2013-2-20,58.9,47.6,40.9,38.7,29.6,21.2,85,53,26,30.18,29.97,7,2,18,0.00
2013-2-21,67.1,58.7,46.2,65.3,51.2,34.9,94,77,61,29.97,29.75,7,4,22,0.00
2013-2-22,67.9,64.4,59.2,66.3,59.7,54.1,98,86,62,29.88,29.76,7,3,23,0.46
2013-2-23,59.0,57.3,55.7,58.1,56.1,51.9,98,96,87,29.86,29.70,5,2,14,1.27
2013-2-24,69.6,59.0,47.3,59.5,52.9,46.2,97,81,61,29.89,29.70,6,3,14,1.07
2013-2-25,67.4,62.7,59.9,66.5,61.1,58.7,98,95,83,29.71,29.41,8,5,25,2.90
2013-2-26,61.8,55.3,49.4,57.9,41.8,34.8,89,61,50,29.84,29.45,9,4,25,0.00
2013-2-27,60.7,54.7,45.7,51.9,45.0,37.2,93,72,43,29.95,29.83,8,3,18,0.00
2013-2-28,59.0,51.0,41.6,46.2,34.8,22.2,88,56,27,30.01,29.91,6,1,17,0.00
2013-3-1,59.9,48.0,38.8,40.5,33.8,26.6,86,61,28,30.07,29.91,8,2,17,0.00
2013-3-2,48.6,40.3,32.1,30.5,26.8,24.3,81,59,43,30.15,30.03,5,2,23,0.00
2013-3-3,57.0,41.4,28.7,36.3,25.8,17.4,88,58,22,30.17,30.05,5,1,17,0.00
2013-3-4,65.5,53.0,34.7,55.6,45.1,33.2,95,76,55,30.07,29.89,7,3,19,0.00
2013-3-5,72.5,62.5,47.7,60.6,53.9,40.5,85,74,46,30.08,29.86,9,5,20,0.00
2013-3-6,62.7,50.2,40.2,40.3,30.3,23.9,81,50,26,30.21,30.08,4,1,18,0.00
2013-3-7,57.5,47.8,38.2,43.5,36.4,31.0,92,66,39,30.26,30.15,7,2,16,0.00
2013-3-8,68.9,52.5,37.8,48.9,42.0,35.6,96,72,30,30.22,30.11,6,2,14,0.00
2013-3-9,69.9,58.6,46.2,59.3,52.2,44.6,94,80,54,30.11,29.93,7,3,22,0.00
2013-3-10,75.1,66.9,62.1,63.4,61.4,59.0,91,83,67,29.94,29.83,9,5,24,0.00
2013-3-11,66.8,57.3,45.4,65.0,52.4,43.8,95,84,60,29.91,29.74,8,2,24,0.17
2013-3-12,68.6,52.3,39.9,43.9,37.8,33.0,94,63,27,30.10,29.91,4,1,14,0.00
2013-3-13,67.4,54.0,39.8,41.7,30.4,20.0,87,48,17,30.28,30.10,6,1,22,0.00
2013-3-14,66.1,51.2,39.3,43.9,30.0,19.1,79,47,19,30.35,30.21,9,2,18,0.00
2013-3-15,65.5,56.3,41.6,52.8,46.5,40.0,95,72,49,30.23,30.07,11,4,21,0.00
2013-3-16,71.5,64.4,54.7,59.6,56.3,52.4,95,76,61,30.07,29.89,8,4,19,0.00
2013-3-17,74.2,63.8,53.8,63.8,58.9,52.4,96,85,61,29.92,29.79,6,2,15,0.03
2013-3-18,76.1,70.0,64.7,68.5,65.5,60.2,95,86,76,29.82,29.69,9,4,18,0.00
2013-3-19,78.5,66.1,56.2,67.8,55.5,47.0,96,72,37,29.94,29.77,7,3,20,0.07
2013-3-20,67.9,58.1,45.5,52.9,38.5,29.7,82,50,25,30.03,29.88,6,2,17,0.00
2013-3-21,64.2,52.3,41.5,44.0,35.5,28.9,75,55,27,29.98,29.81,8,2,18,0.00
2013-3-22,67.4,59.8,48.5,59.4,52.5,43.8,86,77,60,29.82,29.73,7,3,20,0.01
2013-3-23,73.9,68.1,63.1,70.3,64.5,57.5,100,88,81,29.77,29.51,9,3,18,0.47
2013-3-24,76.7,66.7,50.8,67.9,54.8,27.0,98,70,28,29.86,29.49,9,4,30,0.00
2013-3-25,59.9,48.3,37.0,32.9,25.7,15.7,74,45,18,30.14,29.86,8,3,27,0.00
2013-3-26,57.6,45.3,34.6,28.8,25.2,20.2,72,48,26,30.27,30.14,5,2,20,0.00
2013-3-27,55.1,45.3,32.4,39.9,32.1,26.0,89,62,35,30.36,30.21,8,2,16,0.00
2013-3-28,65.0,50.6,36.5,45.1,39.5,32.8,96,70,32,30.27,30.17,9,3,20,0.00
2013-3-29,68.6,56.0,40.8,56.6,47.7,39.7,96,76,40,30.24,30.12,7,2,17,0.00
2013-3-30,71.6,62.3,49.1,62.2,55.1,48.0,97,79,52,30.13,29.95,8,3,18,0.00
2013-3-31,73.5,66.2,60.1,65.6,62.7,58.5,96,89,74,29.98,29.81,9,3,28,0.37
2013-4-1,77.7,64.0,55.1,62.5,56.4,52.6,98,80,44,29.98,29.83,3,1,14,0.01
2013-4-2,77.9,64.2,49.5,60.8,53.0,44.9,98,72,33,30.03,29.92,5,2,17,0.00
2013-4-3,65.8,60.6,55.7,62.5,57.8,51.3,97,91,82,29.96,29.65,9,3,37,1.82
2013-4-4,69.1,58.0,53.1,56.6,53.1,49.8,96,84,64,29.89,29.78,5,2,17,0.00
2013-4-5,70.1,56.6,49.2,49.4,47.1,44.6,88,73,42,30.03,29.88,5,2,19,0.00
2013-4-6,70.6,58.6,43.6,54.5,48.3,42.2,97,72,36,30.08,30.00,6,2,16,0.00
2013-4-7,74.9,63.2,48.5,62.3,55.7,47.4,97,79,49,30.04,29.93,6,2,19,0.00
2013-4-8,79.6,69.9,58.7,68.3,64.0,57.6,97,83,60,29.97,29.88,7,2,22,0.01
2013-4-9,80.1,74.0,70.1,70.3,68.7,67.8,94,84,69,29.98,29.86,8,5,24,0.00
2013-4-10,80.1,74.0,69.8,69.8,68.8,67.5,93,84,70,29.92,29.78,10,5,25,0.00
2013-4-11,79.8,70.7,58.1,72.7,67.8,55.1,97,91,79,29.77,29.53,10,5,30,1.35
2013-4-12,77.2,62.6,50.8,54.6,47.9,41.3,90,63,29,29.89,29.72,5,2,19,0.00
2013-4-13,78.8,63.8,50.2,57.1,50.3,42.9,91,65,28,29.96,29.81,6,2,18,0.00
2013-4-14,69.1,63.2,57.0,65.6,60.3,55.9,96,90,79,29.83,29.66,12,3,29,1.95
2013-4-15,78.1,71.5,66.8,70.9,68.5,65.6,96,90,78,29.92,29.72,5,2,16,0.00
2013-4-16,81.6,74.5,70.8,72.1,70.5,69.0,97,88,73,30.02,29.91,6,3,16,0.00
2013-4-17,81.6,74.0,67.9,72.0,69.6,67.0,97,87,71,30.02,29.91,7,2,20,0.01
2013-4-18,80.1,74.3,69.9,73.2,69.6,66.0,93,86,73,29.91,29.77,9,5,30,0.00
2013-4-19,75.4,55.9,45.4,73.3,53.7,44.3,96,92,82,30.09,29.72,9,2,23,1.18
2013-4-20,69.4,54.2,39.5,46.2,40.7,35.5,98,67,29,30.18,30.03,7,2,20,0.01
2013-4-21,73.7,59.3,44.3,53.8,46.8,40.2,93,67,32,30.12,30.01,6,2,18,0.00
2013-4-22,76.3,64.3,51.3,64.2,57.6,49.6,96,80,64,30.04,29.95,5,2,16,0.00
2013-4-23,74.9,69.3,61.5,65.3,63.7,59.8,95,83,69,30.02,29.94,6,3,19,0.00
2013-4-24,72.1,69.0,62.9,68.3,66.5,61.1,96,92,81,30.05,29.91,12,2,33,0.47
2013-4-25,77.0,63.7,54.8,61.2,55.1,49.7,95,76,53,30.19,30.06,6,3,16,0.00
2013-4-26,78.5,66.9,55.0,62.9,52.7,46.0,87,62,36,30.20,30.12,7,2,18,0.00
2013-4-27,79.0,70.7,61.2,67.5,64.7,60.1,97,82,62,30.12,29.96,6,2,19,0.00
2013-4-28,77.0,70.7,66.8,71.3,67.6,63.6,97,90,79,29.98,29.86,6,1,17,0.16
2013-4-29,81.1,72.0,65.0,67.9,65.6,63.8,97,82,58,29.89,29.80,5,2,15,0.01
2013-4-30,78.8,70.7,64.8,70.4,67.1,63.6,98,89,69,29.86,29.78,6,2,25,0.55
2013-5-1,79.9,69.6,63.1,71.1,67.4,62.2,98,93,74,29.83,29.74,5,2,27,2.36
2013-5-2,72.8,67.2,63.9,66.4,64.6,63.0,98,92,78,29.88,29.77,6,2,16,0.24
2013-5-3,75.6,64.5,47.7,65.7,61.0,46.3,97,89,71,29.89,29.74,4,2,16,0.44
2013-5-4,72.3,57.6,42.8,50.7,41.0,33.0,95,61,26,29.91,29.78,4,1,21,0.00
2013-5-5,67.1,62.9,51.3,56.6,46.1,39.9,76,56,38,29.93,29.75,8,4,23,0.00
2013-5-6,70.8,61.0,46.7,54.3,48.6,44.0,95,66,46,29.94,29.82,7,3,24,0.00
2013-5-7,75.1,65.5,53.1,64.1,57.4,51.7,96,77,52,29.95,29.88,7,2,17,0.00
2013-5-8,78.6,70.1,57.5,65.8,61.4,56.7,97,76,50,30.02,29.92,8,3,17,0.01
2013-5-9,79.4,72.6,63.5,67.6,64.6,61.7,95,77,58,30.06,29.95,6,2,15,0.00
2013-5-10,73.0,69.9,64.8,68.8,66.3,62.9,96,89,74,30.03,29.77,10,3,24,0.69
2013-5-11,76.0,68.2,62.9,67.5,65.1,62.3,98,90,71,29.97,29.85,4,1,12,0.34
2013-5-12,80.7,71.0,61.8,66.9,59.2,54.2,97,69,45,30.03,29.92,5,1,15,0.01
2013-5-13,78.6,65.7,53.2,56.4,49.9,38.2,89,61,26,30.20,30.04,6,2,14,0.00
2013-5-14,80.7,68.8,54.4,61.6,56.2,46.6,96,68,32,30.19,30.08,7,2,15,0.00
2013-5-15,82.6,72.9,59.8,64.3,58.4,48.9,94,63,31,30.12,29.95,5,2,18,0.00
2013-5-16,80.5,74.8,70.4,69.9,67.7,63.3,89,79,67,29.96,29.87,8,4,20,0.00
2013-5-17,84.0,76.8,72.1,72.6,71.2,69.1,94,84,66,29.97,29.88,6,4,17,0.00
2013-5-18,83.8,78.3,75.1,73.1,72.2,69.9,93,82,63,30.00,29.91,7,4,16,0.00
2013-5-19,81.8,77.7,74.6,74.1,73.0,71.9,92,86,77,29.95,29.89,5,3,15,0.00
2013-5-20,86.1,78.9,73.7,74.0,72.3,71.3,93,81,62,29.95,29.87,7,4,16,0.00
2013-5-21,83.8,78.8,74.2,72.8,71.5,69.9,91,79,64,29.90,29.78,8,4,20,0.00
2013-5-22,83.6,74.8,67.8,71.9,69.3,65.7,95,84,58,29.97,29.81,3,1,24,0.20
2013-5-23,70.3,68.4,66.9,68.5,67.2,66.0,97,96,94,29.92,29.86,0,0,0,0.01
2013-5-24,91.4,80.6,71.6,74.0,67.4,59.2,96,67,42,30.06,29.92,6,2,15,0.00
2013-5-25,85.9,74.4,62.4,64.5,57.1,50.9,88,57,34,30.14,30.04,4,2,14,0.00
2013-5-26,85.7,75.1,62.6,70.7,63.2,56.5,96,70,38,30.10,30.03,6,2,16,0.00
2013-5-27,84.1,79.2,74.6,71.2,66.2,60.2,83,66,45,30.06,29.97,8,3,22,0.00
2013-5-28,84.0,75.7,63.5,72.4,67.1,61.7,94,76,55,30.00,29.93,5,2,20,0.00
2013-5-29,84.1,79.3,76.0,74.0,71.9,69.7,88,78,70,29.95,29.89,7,4,26,0.02
2013-5-30,83.0,79.3,76.7,73.3,72.0,71.1,84,79,71,29.96,29.89,7,4,29,0.00
2013-5-31,83.2,79.3,77.0,75.4,73.4,72.1,91,82,74,29.95,29.88,10,5,26,0.04
2013-6-1,86.1,80.7,76.8,75.9,74.5,72.1,91,82,70,29.91,29.84,6,4,19,0.01
2013-6-2,88.4,79.1,68.9,74.6,71.3,65.5,95,79,48,29.92,29.77,7,2,17,0.23
2013-6-3,88.8,80.0,71.5,75.8,73.2,70.3,96,81,63,29.83,29.74,6,1,16,0.24
2013-6-4,89.0,81.5,73.9,76.7,73.9,70.0,97,79,55,29.84,29.79,7,2,17,0.00
2013-6-5,88.0,81.6,74.7,74.8,73.5,68.1,90,77,60,29.84,29.75,6,3,18,0.00
2013-6-6,91.0,76.8,66.1,74.3,67.6,64.6,96,76,46,29.77,29.64,4,1,17,0.08
2013-6-7,85.7,76.9,69.3,71.9,70.0,67.6,96,80,63,29.80,29.68,5,2,16,0.00
2013-6-8,88.4,79.1,70.9,74.8,71.7,68.5,94,79,60,29.93,29.79,6,2,17,0.16
2013-6-9,84.0,76.4,70.6,75.4,72.1,68.2,95,87,69,29.92,29.83,7,2,20,0.24
2013-6-10,86.3,80.3,73.2,77.2,74.4,70.6,96,83,70,29.95,29.87,6,2,16,0.31
2013-6-11,90.5,83.8,76.5,77.7,75.3,72.3,95,77,57,30.00,29.92,6,2,18,0.00
2013-6-12,90.7,84.1,75.3,77.4,74.9,70.2,96,75,54,30.00,29.92,5,2,16,0.00
2013-6-13,91.8,85.3,77.9,76.8,74.2,68.0,90,71,48,29.95,29.78,7,2,18,0.00
2013-6-14,94.3,85.4,77.7,77.6,72.3,65.7,84,66,41,29.84,29.76,5,1,15,0.00
2013-6-15,92.3,82.3,71.3,76.5,71.0,65.2,91,70,52,29.92,29.83,7,2,18,0.00
2013-6-16,91.0,83.8,75.6,78.2,76.0,73.8,96,78,58,29.95,29.88,6,2,17,0.00
2013-6-17,89.7,85.0,79.6,76.0,74.7,72.7,81,72,62,29.92,29.84,7,4,19,0.00
2013-6-18,90.7,85.2,79.4,76.5,73.7,69.7,86,69,52,29.91,29.80,7,5,20,0.02
2013-6-19,89.3,81.0,72.0,75.8,72.6,70.5,96,77,56,29.93,29.84,3,0,11,0.00
2013-6-20,88.8,77.3,71.8,76.5,72.3,69.0,96,86,56,30.00,29.91,4,0,16,1.08
2013-6-21,88.6,76.8,70.3,75.7,71.9,68.7,97,86,63,30.02,29.95,5,1,18,0.39
2013-6-22,88.2,78.5,72.3,74.9,72.5,70.0,96,83,65,30.01,29.90,5,1,13,0.00
2013-6-23,88.0,78.6,73.5,77.4,74.0,72.3,96,87,64,30.00,29.92,5,1,16,1.07
2013-6-24,88.6,80.1,73.5,77.4,74.4,71.4,97,84,57,30.06,29.97,4,1,27,0.21
2013-6-25,89.7,82.3,73.2,75.8,74.1,72.0,96,78,60,30.03,29.92,6,2,17,0.00
2013-6-26,90.1,85.1,79.6,76.9,75.1,73.1,87,72,59,29.97,29.88,6,3,16,0.00
2013-6-27,92.3,86.8,80.3,79.4,76.9,75.2,89,73,60,29.92,29.81,5,2,14,0.00
2013-6-28,93.6,87.3,81.4,80.5,77.5,74.4,90,74,55,29.83,29.67,7,2,20,0.00
2013-6-29,91.0,83.9,77.0,77.4,73.2,68.0,81,71,60,29.71,29.58,6,2,17,0.01
2013-6-30,94.9,82.4,73.0,72.3,67.5,56.4,94,65,28,29.69,29.61,4,1,15,0.00
2013-7-1,91.4,80.4,69.8,67.6,65.2,59.0,85,63,36,29.81,29.68,4,1,14,0.00
2013-7-2,89.5,79.9,70.6,70.0,67.6,65.1,85,68,47,29.90,29.80,5,1,14,0.00
2013-7-3,86.7,76.9,72.7,75.1,71.8,69.3,96,85,63,29.93,29.84,3,1,16,0.12
2013-7-4,88.8,79.2,71.5,75.7,73.1,70.6,97,83,57,29.89,29.82,8,3,19,0.05
2013-7-5,81.1,76.2,73.2,76.6,73.0,69.2,96,90,79,30.00,29.87,7,2,24,0.50
2013-7-6,77.4,75.1,72.8,74.6,73.2,70.8,97,94,89,29.95,29.87,3,1,15,1.32
2013-7-7,83.2,77.1,73.5,77.3,74.5,72.2,98,92,76,30.04,29.91,4,1,15,0.47
2013-7-8,87.0,77.0,72.8,77.2,74.6,71.6,98,93,68,30.07,29.97,5,0,12,0.25
2013-7-9,88.2,80.6,72.3,78.3,74.1,71.7,99,82,64,30.09,30.00,6,2,14,0.01
2013-7-10,89.0,80.7,75.3,77.5,75.1,72.7,96,84,64,30.02,29.89,7,1,15,0.03
2013-7-11,81.8,77.6,73.5,77.0,74.5,72.0,97,90,83,29.92,29.78,5,2,22,1.41
2013-7-12,91.0,77.1,70.9,75.9,71.8,67.7,98,85,56,29.84,29.76,8,1,28,0.57
2013-7-13,88.8,77.4,70.3,77.2,73.3,69.2,98,88,67,29.86,29.77,5,1,13,0.11
2013-7-14,88.2,79.5,71.8,74.0,72.3,70.6,97,80,61,29.93,29.81,7,2,15,0.00
2013-7-15,88.6,80.1,72.8,75.0,73.3,71.6,96,81,59,30.02,29.92,7,2,21,0.00
2013-7-16,83.4,78.6,73.7,77.6,74.3,71.9,96,87,73,30.09,29.98,8,2,24,0.14
2013-7-17,91.0,81.1,73.0,75.7,73.6,71.8,96,79,58,30.11,30.01,5,2,16,0.00
2013-7-18,90.3,80.2,73.0,77.0,74.1,71.8,96,83,59,30.06,29.92,6,2,15,0.11
2013-7-19,88.0,79.1,73.2,76.9,74.0,72.3,97,85,64,29.98,29.86,4,1,14,0.37
2013-7-20,88.8,81.1,74.4,77.3,74.6,73.4,97,82,64,29.91,29.83,7,2,17,0.00
2013-7-21,86.1,80.8,75.1,75.3,73.5,71.6,92,79,70,29.98,29.89,6,3,20,0.19
2013-7-22,86.5,79.3,73.2,78.9,74.9,70.8,97,87,71,29.97,29.91,6,2,32,1.92
2013-7-23,90.1,84.5,77.7,78.9,76.7,73.5,98,78,63,29.96,29.82,7,3,22,0.01
2013-7-24,92.5,84.5,79.4,77.8,75.5,70.5,89,75,49,29.87,29.77,6,3,20,0.00
2013-7-25,93.8,82.4,73.7,74.4,72.1,68.7,92,73,49,29.92,29.79,2,1,13,0.00
2013-7-26,90.7,82.2,72.8,76.3,73.1,70.5,93,76,59,29.95,29.86,4,1,13,0.00
2013-7-27,84.3,78.1,72.1,77.1,74.1,68.0,96,88,67,29.90,29.78,6,1,29,1.63
2013-7-28,90.5,80.9,74.4,76.5,74.6,72.7,98,83,58,29.91,29.77,3,1,12,0.11
2013-7-29,92.3,82.9,75.3,78.3,75.7,72.4,96,80,55,30.01,29.89,5,1,16,0.01
2013-7-30,91.4,84.1,76.1,81.4,76.8,74.8,96,80,63,30.04,29.96,4,1,14,0.16
2013-7-31,91.4,82.4,77.6,78.2,76.3,72.9,96,83,60,30.01,29.89,4,1,14,0.11
2013-8-1,94.0,83.5,75.8,78.2,75.9,73.5,93,79,54,29.92,29.82,5,2,21,0.02
2013-8-2,93.4,82.4,72.8,77.4,74.9,71.9,97,80,52,29.92,29.82,6,1,15,0.00
2013-8-3,94.3,84.7,75.1,77.8,75.7,70.1,97,76,48,29.97,29.88,4,1,13,0.01
2013-8-4,96.6,85.2,77.6,77.9,75.8,72.7,95,75,48,29.99,29.87,6,1,14,0.00
2013-8-5,92.5,80.6,74.0,79.0,75.4,72.2,97,86,62,29.94,29.86,6,1,22,2.19
2013-8-6,94.3,83.8,74.6,78.2,75.8,73.0,99,79,54,29.91,29.81,6,2,17,0.47
2013-8-7,93.4,82.4,75.3,81.4,77.6,74.4,97,86,60,29.88,29.81,7,1,15,0.48
2013-8-8,91.4,83.8,78.1,79.7,77.5,75.6,97,83,60,29.88,29.81,3,1,13,0.28
2013-8-9,89.9,82.0,75.8,79.3,76.2,72.1,97,83,64,29.94,29.84,7,2,19,0.64
2013-8-10,91.0,82.4,76.0,79.7,75.0,72.4,97,80,57,29.99,29.91,5,1,18,0.29
2013-8-11,91.8,84.0,76.5,78.9,75.7,74.2,96,77,57,30.03,29.97,7,2,18,0.04
2013-8-12,88.0,82.7,78.8,80.5,76.9,73.9,94,83,72,30.01,29.92,4,1,13,0.39
2013-8-13,91.6,81.1,74.7,78.6,75.6,72.6,94,84,60,29.94,29.86,6,2,16,0.02
2013-8-14,82.4,76.2,73.7,75.2,73.2,71.4,96,90,73,29.89,29.81,5,1,18,0.22
2013-8-15,89.3,79.3,72.8,74.2,72.9,71.0,98,82,58,29.89,29.81,2,0,9,0.00
2013-8-16,87.4,78.1,72.5,74.6,72.7,70.0,96,85,59,29.89,29.82,4,2,13,0.15
2013-8-17,76.5,74.2,72.3,73.2,72.0,70.8,97,93,85,29.91,29.82,4,2,14,0.11
2013-8-18,82.8,75.6,71.8,76.4,73.7,70.0,98,94,79,29.90,29.83,10,2,28,1.87
2013-8-19,88.4,79.2,72.3,76.6,74.3,71.6,98,86,68,29.95,29.88,4,1,13,0.00
2013-8-20,88.4,80.6,72.7,77.3,74.4,72.1,98,83,62,29.97,29.89,6,1,18,0.01
2013-8-21,90.1,80.1,75.4,77.3,74.6,71.5,97,84,58,30.04,29.95,4,1,15,0.02
2013-8-22,89.5,79.9,72.7,77.3,73.6,71.5,96,83,58,30.00,29.87,6,2,17,0.16
2013-8-23,83.8,77.4,73.9,76.2,73.9,72.7,97,90,73,29.93,29.84,4,1,14,0.30
2013-8-24,78.1,75.2,73.2,75.3,73.3,71.5,97,94,87,30.03,29.88,4,1,14,0.19
2013-8-25,84.1,77.2,73.2,74.6,73.5,72.0,97,89,70,30.09,29.98,6,2,19,0.06
2013-8-26,89.3,79.1,73.2,73.8,70.3,62.0,97,77,42,30.10,30.00,5,2,18,0.00
2013-8-27,88.2,77.0,67.1,69.7,67.5,65.0,93,75,49,30.03,29.94,2,1,12,0.00
2013-8-28,88.8,77.3,66.4,70.8,68.2,65.5,97,76,53,29.99,29.91,4,1,13,0.00
2013-8-29,90.5,79.7,68.6,71.7,69.2,66.3,97,73,46,29.98,29.89,5,1,13,0.00
2013-8-30,91.4,81.2,71.5,73.8,71.5,69.2,97,75,51,29.94,29.82,6,2,14,0.00
2013-8-31,91.8,82.6,74.4,76.2,72.9,70.5,92,74,53,29.88,29.76,5,2,14,0.00
2013-9-1,91.2,84.1,76.0,77.8,75.8,72.9,95,77,58,29.84,29.76,7,2,17,0.00
2013-9-2,91.2,85.4,78.6,77.5,75.7,73.5,89,73,58,29.89,29.78,7,3,16,0.00
2013-9-3,91.4,82.6,73.0,78.7,75.9,69.4,96,81,62,29.89,29.79,8,2,22,0.28
2013-9-4,89.9,80.3,72.1,78.4,74.6,71.2,97,84,66,29.97,29.85,5,1,16,0.02
2013-9-5,89.3,80.6,74.4,77.9,75.0,71.8,97,84,62,30.01,29.93,5,1,15,0.62
2013-9-6,91.0,81.3,73.7,75.6,74.2,71.8,97,81,54,30.00,29.89,3,1,11,0.01
2013-9-7,91.6,81.4,71.8,74.1,71.5,67.5,96,75,46,29.95,29.87,5,1,12,0.00
2013-9-8,90.3,80.6,72.0,74.6,72.6,70.5,96,78,57,29.91,29.84,5,1,14,0.00
2013-9-9,91.4,81.1,71.8,74.5,71.8,68.5,96,76,48,29.95,29.86,5,1,16,0.00
2013-9-10,91.4,80.8,72.7,74.6,71.9,70.1,94,76,51,30.01,29.92,8,2,22,0.00
2013-9-11,91.4,80.9,72.7,74.5,71.4,67.7,94,75,46,30.02,29.93,7,2,19,0.00
2013-9-12,90.3,80.5,71.3,74.5,71.8,68.9,93,76,57,29.94,29.82,5,1,15,0.00
2013-9-13,92.5,81.7,71.8,74.7,71.9,67.9,97,75,46,29.84,29.72,5,1,15,0.00
2013-9-14,87.0,79.6,72.5,72.8,69.3,67.4,87,72,53,29.89,29.76,5,1,12,0.00
2013-9-15,90.1,80.1,69.4,73.5,69.2,62.4,89,71,53,29.96,29.87,5,2,16,0.00
2013-9-16,92.3,80.4,73.0,76.0,73.0,69.6,97,80,53,29.98,29.90,9,2,27,0.01
2013-9-17,91.2,78.7,72.3,76.9,72.6,70.2,95,83,56,29.98,29.88,5,1,27,0.27
2013-9-18,85.9,79.1,74.0,75.4,73.3,71.8,95,83,68,29.97,29.91,5,2,16,0.00
2013-9-19,87.0,80.2,75.1,75.2,73.5,72.3,92,81,67,29.96,29.88,7,3,21,0.00
2013-9-20,87.8,80.4,75.3,78.7,74.9,72.5,94,84,68,29.91,29.74,7,2,21,0.75
2013-9-21,82.0,77.9,71.8,77.0,74.5,70.3,96,90,80,29.74,29.63,6,2,23,0.60
2013-9-22,81.1,73.1,68.6,69.6,67.4,64.3,96,83,66,29.71,29.63,6,3,17,0.04
2013-9-23,89.5,77.9,67.1,77.0,70.3,61.7,95,78,63,29.77,29.70,6,2,16,0.08
2013-9-24,85.3,78.5,73.3,77.3,75.1,72.4,97,90,71,29.78,29.67,6,2,17,0.42
2013-9-25,89.7,77.8,70.1,73.8,71.6,68.7,98,83,52,29.74,29.66,4,1,13,0.00
2013-9-26,89.7,77.7,66.8,72.3,66.3,57.9,97,72,36,29.84,29.71,4,1,13,0.00
2013-9-27,85.3,76.4,69.8,69.7,68.0,63.8,93,77,49,29.93,29.83,4,2,14,0.00
2013-9-28,86.1,74.3,65.3,67.8,65.6,61.7,93,76,47,29.98,29.91,6,2,17,0.00
2013-9-29,87.2,74.9,67.1,67.1,65.8,63.7,94,75,50,29.95,29.85,5,2,12,0.00
2013-9-30,81.8,74.6,70.3,71.0,68.8,65.2,96,83,66,29.89,29.83,3,1,12,0.05
2013-10-1,85.9,77.1,69.4,73.0,70.3,68.2,96,81,58,29.95,29.87,7,2,18,0.00
2013-10-2,84.0,76.7,73.3,75.7,72.7,71.1,97,88,69,29.96,29.88,4,2,12,0.13
2013-10-3,87.8,78.1,72.7,75.1,73.1,71.5,97,85,63,29.95,29.87,8,2,32,0.04
2013-10-4,87.2,79.4,72.5,76.7,74.0,71.6,97,84,67,29.95,29.88,5,1,19,0.00
2013-10-5,87.2,79.9,74.2,77.2,73.7,71.4,97,82,61,29.92,29.83,7,2,21,0.01
2013-10-6,83.8,76.2,68.1,75.3,72.2,58.3,97,88,70,29.83,29.69,7,2,19,1.31
2013-10-7,77.6,67.9,59.8,58.4,52.9,46.6,81,61,35,29.92,29.78,6,2,19,0.00
2013-10-8,79.4,65.7,54.5,59.8,55.1,51.9,91,71,43,29.93,29.87,3,0,11,0.00
2013-10-9,82.8,70.8,60.5,70.4,65.1,57.6,93,83,63,29.99,29.91,5,2,16,0.00
2013-10-10,83.2,73.0,65.5,68.9,67.0,64.6,97,83,59,30.01,29.91,4,2,13,0.00
2013-10-11,84.7,74.0,65.5,70.2,67.7,64.6,98,82,58,29.97,29.88,5,1,15,0.01
2013-10-12,84.3,75.5,66.1,71.8,68.4,65.2,97,80,59,30.00,29.90,5,1,13,0.00
2013-10-13,87.4,76.3,68.6,73.4,70.0,66.5,96,82,50,30.06,29.96,4,1,11,0.00
2013-10-14,85.9,73.8,64.5,68.1,65.0,60.6,97,77,44,30.01,29.92,4,1,13,0.01
2013-10-15,83.0,73.8,65.8,68.5,66.8,63.7,94,80,59,29.97,29.86,6,1,13,0.00
2013-10-16,82.8,75.1,66.4,70.2,67.6,65.2,97,79,59,29.92,29.83,5,1,14,0.01
2013-10-17,83.4,77.0,66.9,74.5,69.9,62.2,96,79,66,29.87,29.80,6,2,15,0.06
2013-10-18,77.9,68.8,62.9,61.9,60.4,58.5,93,76,53,29.94,29.82,4,1,14,0.00
2013-10-19,68.4,64.1,59.9,64.0,60.6,58.3,97,89,78,29.92,29.81,3,1,13,0.39
2013-10-20,75.8,63.4,53.9,59.4,56.5,52.8,96,81,49,29.97,29.89,4,1,12,0.01
2013-10-21,72.3,64.9,59.3,63.3,58.8,55.6,90,81,66,29.97,29.88,3,1,11,0.00
2013-10-22,81.2,69.1,61.3,65.2,58.9,50.7,93,73,37,29.89,29.79,2,1,14,0.00
2013-10-23,75.4,63.1,51.9,56.4,48.8,39.3,91,64,28,30.04,29.88,4,1,17,0.00
2013-10-24,73.9,60.2,46.5,56.7,50.1,44.9,95,73,39,30.14,30.02,4,1,12,0.00
2013-10-25,68.8,58.1,49.9,54.9,45.0,38.5,96,65,34,30.28,30.11,8,2,21,0.00
2013-10-26,71.5,55.9,42.6,49.2,41.9,35.6,90,63,28,30.22,30.09,4,1,11,0.00
2013-10-27,75.6,61.6,47.6,62.3,54.4,46.2,96,80,49,30.08,29.99,4,1,13,0.04
2013-10-28,80.7,67.3,56.6,66.2,60.6,55.8,98,81,52,30.10,30.00,6,1,17,0.01
2013-10-29,79.0,68.5,59.3,65.4,62.5,58.4,97,83,60,30.16,30.08,6,1,17,0.01
2013-10-30,79.2,70.3,62.0,68.9,65.6,60.8,97,86,68,30.11,29.98,5,1,17,0.01
2013-10-31,79.8,76.3,72.0,72.6,70.3,68.1,95,82,72,29.98,29.75,8,4,20,0.24
2013-11-1,76.3,70.0,59.2,72.5,64.3,52.1,96,83,66,29.82,29.70,6,2,16,0.05
2013-11-2,77.0,62.7,51.7,53.6,49.3,43.2,92,65,38,30.04,29.81,4,1,15,0.00
2013-11-3,69.4,55.3,43.6,48.6,44.3,40.5,93,70,35,30.14,30.04,5,1,15,0.00
2013-11-4,73.2,61.0,46.8,57.4,51.9,44.9,94,73,56,30.17,30.06,5,2,15,0.00
2013-11-5,74.9,66.5,61.3,60.9,57.4,52.8,88,73,59,30.15,30.04,7,4,20,0.00
2013-11-6,78.5,69.4,59.5,69.4,63.5,54.4,91,82,73,30.05,29.97,5,3,17,0.00
2013-11-7,72.1,60.6,47.7,70.3,53.4,39.1,95,78,56,30.18,29.94,5,2,21,0.02
2013-11-8,67.3,52.1,41.9,40.5,36.2,30.6,89,59,28,30.23,30.08,9,3,23,0.00
2013-11-9,75.1,58.8,42.6,59.8,51.1,39.5,93,77,57,30.15,30.06,4,1,11,0.00
2013-11-10,75.4,63.0,53.6,58.2,53.9,49.5,89,74,47,30.17,30.07,5,1,14,0.00
2013-11-11,77.7,60.6,48.0,55.9,49.9,45.7,95,72,35,30.14,30.04,4,1,13,0.00
2013-11-12,72.1,56.0,42.3,53.9,46.5,27.3,97,73,47,30.35,30.07,6,2,25,0.01
2013-11-13,54.8,42.4,33.7,31.3,23.6,19.3,80,50,26,30.41,30.31,8,4,24,0.00
2013-11-14,64.8,52.0,35.2,49.1,38.7,26.1,76,61,51,30.31,30.05,6,3,15,0.00
2013-11-15,73.2,63.1,57.6,67.9,59.6,48.6,98,89,69,30.04,29.89,5,2,15,0.14
2013-11-16,75.8,68.6,62.7,71.0,66.2,62.1,99,93,79,29.99,29.89,5,2,16,0.01
2013-11-17,77.0,72.2,69.1,72.6,70.6,68.0,98,95,84,29.91,29.82,6,2,17,0.21
2013-11-18,73.2,66.4,56.5,72.1,60.9,41.0,99,84,52,29.99,29.85,8,0,20,0.60
2013-11-19,64.3,54.0,44.1,43.4,39.5,35.3,85,60,35,30.05,29.94,7,1,23,0.00
2013-11-20,72.1,55.6,40.5,59.3,48.8,35.6,95,79,62,30.03,29.94,4,1,12,0.00
2013-11-21,69.9,63.1,56.9,62.9,59.3,54.3,94,88,77,30.14,30.03,5,3,14,0.00
2013-11-22,77.4,68.5,62.0,69.2,65.0,60.5,96,89,76,30.12,30.04,9,2,19,0.06
2013-11-23,65.5,60.2,49.8,64.1,56.4,40.4,97,87,70,30.19,30.06,6,3,20,0.00
2013-11-24,53.9,46.5,40.6,40.6,28.4,20.6,72,51,28,30.27,30.18,9,5,29,0.00
2013-11-25,66.1,51.0,38.8,65.2,44.6,26.3,98,79,58,30.21,29.77,11,5,30,0.27
2013-11-26,67.6,51.9,42.8,66.7,49.8,41.5,97,93,84,29.86,29.62,6,3,37,1.49
2013-11-27,49.6,40.8,32.9,41.3,30.7,25.5,95,69,41,30.31,29.87,4,2,24,0.01
2013-11-28,51.1,36.9,27.8,32.2,25.8,22.1,91,67,33,30.40,30.29,5,1,11,0.00
2013-11-29,60.1,40.8,28.1,37.4,30.0,23.9,94,71,27,30.44,30.32,5,1,15,0.00
2013-11-30,67.9,48.2,32.5,49.9,40.7,30.6,96,78,45,30.34,30.17,4,1,10,0.01
2013-12-1,68.3,52.4,39.1,53.4,47.3,38.3,98,84,57,30.18,29.92,4,1,11,0.00
2013-12-2,66.1,59.1,48.0,61.1,52.7,45.9,98,81,50,29.92,29.70,6,2,15,0.00
2013-12-3,69.8,65.5,61.6,64.8,62.8,60.4,96,91,82,29.75,29.67,8,5,21,0.01
2013-12-4,74.9,69.7,65.8,70.6,68.2,64.5,99,95,85,29.88,29.75,7,4,19,0.02
2013-12-5,76.0,72.2,68.8,73.9,71.2,68.5,100,97,88,29.95,29.86,7,3,18,0.11
2013-12-6,75.6,68.4,50.4,73.4,67.4,49.6,99,97,89,30.07,29.88,9,5,20,0.21
2013-12-7,49.6,42.9,41.2,48.8,41.5,39.3,98,95,92,30.20,30.07,5,2,24,0.11
2013-12-8,65.3,52.2,42.2,64.4,51.0,41.7,99,96,87,30.14,29.94,3,1,10,0.00
2013-12-9,70.4,62.1,55.4,67.1,58.9,55.1,99,90,72,30.03,29.94,4,1,14,0.01
2013-12-10,60.2,46.4,37.9,57.3,41.4,34.4,96,83,65,30.26,29.94,5,2,17,0.27
2013-12-11,61.8,48.4,35.2,44.3,37.9,31.8,88,69,49,30.30,30.20,6,1,13,0.00
2013-12-12,57.2,47.3,35.9,40.2,30.3,23.0,72,53,27,30.40,30.29,7,2,20,0.00
2013-12-13,61.8,48.4,32.4,51.5,40.1,25.4,85,73,61,30.28,29.93,5,2,15,0.00
2013-12-14,68.8,62.3,50.5,63.7,59.3,46.5,96,90,82,29.92,29.74,6,2,17,0.10
2013-12-15,50.8,43.9,34.4,45.3,36.2,32.6,93,75,58,30.22,29.92,4,2,18,0.00
2013-12-16,59.9,42.2,30.3,41.0,35.1,29.3,96,79,34,30.26,30.16,4,1,10,0.01
2013-12-17,62.4,46.0,32.5,44.3,38.2,31.7,98,78,37,30.25,30.14,4,1,12,0.00
2013-12-18,66.8,48.8,36.6,46.5,40.0,35.6,97,76,33,30.27,30.15,6,1,13,0.01
2013-12-19,70.9,55.9,38.3,59.5,50.7,37.3,96,84,63,30.14,29.97,4,2,15,0.01
2013-12-20,72.8,67.2,61.0,67.5,64.7,59.6,97,92,82,30.01,29.90,8,3,18,0.00
2013-12-21,73.5,71.2,68.1,71.2,69.9,67.5,98,95,92,29.88,29.73,10,7,24,0.03
2013-12-22,70.9,60.1,54.5,70.3,59.4,53.9,99,98,96,30.03,29.74,9,2,25,3.01
2013-12-23,55.3,47.2,37.0,55.0,43.4,32.3,99,87,75,30.34,30.01,2,0,17,0.11
2013-12-24,52.9,39.5,31.2,32.3,29.4,25.9,88,70,39,30.41,30.28,4,1,17,0.00
2013-12-25,48.3,39.0,29.0,34.0,29.0,25.0,88,68,49,30.32,30.21,5,0,13,0.00
2013-12-26,53.9,43.9,35.6,39.1,33.6,29.8,85,68,46,30.27,30.17,3,0,12,0.00
2013-12-27,60.9,50.3,40.6,37.1,35.2,33.0,79,58,35,30.29,30.17,5,2,16,0.00
2013-12-28,51.7,48.1,45.7,48.9,46.3,36.5,98,94,56,30.16,29.84,6,1,16,1.47
2013-12-29,61.2,50.6,43.6,50.2,47.4,42.8,99,90,59,30.03,29.86,1,0,9,0.04
2013-12-30,57.0,48.9,40.3,50.5,46.0,39.8,99,90,70,30.21,30.02,0,0,4,0.00
2013-12-31,50.2,45.2,42.8,47.7,41.6,38.7,93,87,77,30.32,30.20,4,1,11,0.03
2014-1-1,62.7,52.5,42.9,57.2,50.5,41.3,98,93,79,30.24,29.95,3,1,9,0.12
2014-1-2,59.0,52.2,36.0,57.5,45.4,24.6,99,79,55,30.24,29.82,5,2,25,0.22